Flag for United Kingdom Weather past 2 weeks in Taunton, England, United Kingdom

Now
49 °F

Rain. Cloudy.


Feels Like: 42 °F
Forecast: 46 / 53 °F
Wind: 25 mph from West

Location: Dunkeswell Aerodrome

Current Time: Mar 29, 2015 at 11:11:00 AM

Latest Report: Mar 29, 2015 at 10:00 AM


Visibility: 2 mi

Pressure: 29.59 "Hg

Humidity: 100%

Dew point: 49 °F

Location of TauntonLocation

Historic Weather in Taunton — Graph

°F

Taunton temperature yesterday

Maximum temperature yesterday: 52 °F (at 9:00 AM)
Minimum temperature yesterday: 46 °F (at 12:00 AM)
Average temperature yesterday: 49 °F

Past Weeks' High & Low Weather Summary

 TemperatureHumidityPressure
High52 °F (Mar 28, 9:00 AM)100% (Mar 15, 8:00 AM)30.56 "Hg (Mar 15, 8:00 AM)
Low32 °F (Mar 25, 6:00 AM)47% (Mar 25, 4:00 PM)29.54 "Hg (Mar 26, 6:00 AM)
Average41 °F86%30.18 "Hg
* Reported Mar 14 8:00 AM — Mar 29 9:00 AM, Taunton, Weather by CustomWeather, © 2015

Note: Actual official high and low records may vary slightly from our data, if they occured in-between our weather recording intervals... More about our weather records

Advertising

Taunton weather history for previous 24 hours

 ConditionsComfort  
Time TempWeatherWind HumidityBarometerVisibility
9:00 AM
Sun, Mar 29
49 °FRain. Cloudy.22 mph100%29.62 "Hg2 mi
8:00 AM50 °FRain. Cloudy.23 mph100%29.63 "Hg2 mi
7:00 AM49 °FRain. Cloudy.20 mph100%29.65 "Hg4 mi
6:00 AM49 °FLight rain. Overcast.16 mph100%29.68 "Hg11 mi
5:00 AM48 °FRain. Overcast.16 mph100%29.71 "Hg4 mi
3:00 AM48 °FRain showers. Overcast.21 mph92%29.77 "Hg9 mi
2:00 AM47 °FRain. Overcast.20 mph99%29.80 "Hg6 mi
12:00 AM48 °FDrizzle. Overcast.20 mph97%29.81 "Hg3 mi
11:00 PM
Sat, Mar 28
47 °FCool.17 mph93%29.83 "Hg7 mi
10:00 PM47 °FCool.18 mph90%29.84 "Hg7 mi
8:00 PM47 °FLight freezing rain. Overcast.17 mph92%29.85 "Hg6 mi
7:00 PM48 °FDrizzle. Overcast.17 mph90%29.84 "Hg6 mi
6:00 PM49 °FCool.21 mph93%29.84 "Hg6 mi
5:00 PM50 °FDrizzle. Cloudy.18 mph96%29.82 "Hg5 mi
4:00 PM51 °FRain showers. Cloudy.15 mph89%29.83 "Hg8 mi
3:00 PM51 °FLots of rain. Cloudy.17 mph99%29.83 "Hg2 mi
2:00 PM52 °FCool.17 mph100%29.85 "Hg12 mi
1:00 PM51 °FDrizzle. Cloudy.16 mph100%29.87 "Hg2 mi
12:00 PM50 °FLight rain. Cloudy.14 mph100%29.89 "Hg2 mi
11:00 AM49 °FLots of rain. Cloudy.14 mph100%29.91 "Hg5 mi
Weather by CustomWeather, © 2015

See weather overviewHow to use our weather pages